Location: Staunton
(38.1490°N, 79.0720°W)
Time: 16:59:28
(UTC-04:00)

ISS - Pass Details

Date: 12 October 2018
Orbit: 403 x 408 km, 51.6° (Epoch: 17 October)

Event Time Altitude Azimuth Distance (km) Brightness Sun altitude
Rises 19:23:20 0° 308° (NW) 2,334 0.9 -8.8°
Reaches altitude 10° 19:25:26 10° 308° (NW) 1,470 -0.2 -9.2°
Maximum altitude 19:28:44 82° 221° (SW) 415 -3.8 -9.8°
Drops below altitude 10° 19:32:00 10° 133° (SE) 1,460 -1.4 -10.5°
Enters shadow 19:32:20 - 133° (SE) 1,593 -1.2 -10.5°
